EW0910 Weather Reports


Display with metric or nautical units.
time (UTC)temp
F
wind
direction
speed
MPH
gust
MPH
rain 1hr
in
rain 24hr
in
rain mn
in
humidity
%
barometer
mb
20260507081559 41 233 0.0 0.0 0.00 0.00 0.00 87 1018.6
20260507074610 39 234 0.0 0.0 0.00 0.00 0.00 87 1018.8
20260507073056 39 233 0.0 0.0 0.00 0.00 0.00 87 1018.8
20260507071556 39 233 0.0 0.0 0.00 0.00 0.00 86 1018.7
20260507070106 39 233 0.0 0.0 0.00 0.00 0.00 86 1018.8
20260507064554 40 233 0.0 0.0 0.00 0.00 0.00 86 1019.0
20260507063057 39 234 0.0 0.0 0.00 0.00 0.00 85 1018.9
20260507061549 40 234 0.0 0.0 0.00 0.00 0.00 84 1019.1
20260507060048 40 234 0.0 0.0 0.00 0.00 0.00 85 1019.2
20260507054545 41 233 0.0 0.0 0.00 0.00 0.00 84 1019.0
20260507053042 42 233 0.0 0.0 0.00 0.00 0.00 82 1019.1
20260507051540 42 234 0.0 0.0 0.00 0.00 0.00 83 1019.0
20260507050038 43 233 0.0 0.0 0.00 0.00 0.00 82 1019.1
20260507044535 43 234 0.0 0.0 0.00 0.00 0.00 81 1019.2
20260507043037 44 233 0.0 0.0 0.00 0.00 0.00 80 1019.0
20260507041532 44 234 0.0 0.0 0.00 0.00 0.00 80 1019.1
20260507040033 44 233 0.0 0.0 0.00 0.00 0.00 81 1019.0
20260507034535 44 234 0.0 0.0 0.00 0.00 0.00 80 1019.0
20260507033030 45 233 0.0 0.0 0.00 0.00 0.00 80 1018.8
20260507031530 44 233 0.0 0.0 0.00 0.00 0.00 78 1018.8
20260507030030 45 233 0.0 0.0 0.00 0.00 0.00 78 1018.6
20260507024528 45 234 0.0 0.0 0.00 0.00 0.00 78 1018.6
20260507023027 46 234 0.0 0.0 0.00 0.00 0.00 78 1018.5
20260507021529 46 234 0.0 0.0 0.00 0.00 0.00 76 1018.4
20260507020038 48 234 0.0 0.0 0.00 0.00 0.00 72 1018.2
20260507014525 49 233 0.0 0.0 0.00 0.00 0.00 68 1017.9
20260507013040 52 233 0.0 0.0 0.00 0.00 0.00 64 1017.6
20260507011525 54 233 0.0 1.0 0.00 0.00 0.00 57 1017.6
20260507010033 57 227 0.0 1.0 0.00 0.00 0.00 51 1017.5
20260507004524 60 272 0.0 1.0 0.00 0.00 0.00 46 1017.3
20260507003024 62 281 0.0 4.0 0.00 0.00 0.00 43 1017.2
20260507001528 62 319 0.0 3.0 0.00 0.00 0.00 44 1017.1
20260507000023 62 313 0.0 7.0 0.00 0.01 0.00 46 1017.0
20260506234529 63 219 0.0 2.0 0.00 0.01 0.00 45 1016.9
20260506233021 62 277 0.0 1.0 0.00 0.01 0.00 51 1016.7
20260506231524 62 231 0.0 3.0 0.00 0.01 0.00 48 1016.7
20260506230021 61 51 1.0 7.0 0.00 0.01 0.00 48 1016.5
20260506224519 63 219 0.0 4.0 0.00 0.01 0.00 51 1016.9
20260506223018 61 240 0.0 8.0 0.00 0.01 0.00 51 1016.5
20260506221518 62 78 0.0 4.0 0.00 0.01 0.00 50 1016.7
20260506220024 62 109 0.0 4.0 0.00 0.01 0.00 48 1016.7
20260506214517 63 59 0.0 2.0 0.00 0.01 0.00 49 1016.7
20260506213016 66 98 0.0 6.0 0.00 0.01 0.00 44 1016.9
20260506211523 66 285 0.0 4.0 0.00 0.01 0.00 46 1017.0
20260506210025 66 100 2.0 10.0 0.00 0.01 0.00 44 1017.1
20260506204512 65 277 0.0 5.0 0.00 0.01 0.00 45 1017.0
20260506203010 64 66 2.0 7.0 0.00 0.01 0.00 45 1017.3
20260506201510 64 52 2.0 7.0 0.00 0.01 0.00 47 1017.3
20260506200023 64 263 1.0 12.0 0.00 0.01 0.00 49 1017.5
20260506194509 63 121 0.0 10.0 0.00 0.01 0.00 48 1017.9
20260506193009 62 232 1.0 6.0 0.00 0.01 0.00 47 1017.9
20260506191508 63 112 2.0 9.0 0.00 0.01 0.00 47 1018.1
20260506190007 63 269 0.0 6.0 0.00 0.01 0.00 48 1018.4
20260506184507 63 264 2.0 10.0 0.00 0.01 0.00 51 1018.5
20260506183006 64 271 0.0 5.0 0.00 0.01 0.00 51 1018.8
20260506181501 63 255 0.0 9.0 0.00 0.01 0.00 51 1018.9
20260506180100 63 34 0.0 10.0 0.00 0.01 0.00 50 1018.9
20260506174600 62 208 0.0 7.0 0.00 0.01 0.00 48 1019.1
20260506173111 62 269 0.0 8.0 0.00 0.01 0.00 52 1019.4
20260506171607 62 269 1.0 6.0 0.00 0.01 0.00 54 1019.4
20260506164611 61 263 1.0 9.0 0.00 0.01 0.00 51 1019.6
20260506163058 60 61 0.0 6.0 0.00 0.01 0.00 55 1019.4
20260506161552 61 230 1.0 8.0 0.00 0.01 0.00 56 1019.0
20260506160055 60 109 1.0 5.0 0.00 0.01 0.00 55 1018.6
20260506154550 59 107 0.0 5.0 0.00 0.01 0.00 56 1018.3
20260506153040 58 136 3.0 11.0 0.00 0.01 0.00 58 1017.9
20260506151539 57 92 1.0 6.0 0.00 0.01 0.00 59 1018.3
20260506150037 57 71 2.0 7.0 0.00 0.01 0.00 62 1018.5
20260506144535 57 285 0.0 5.0 0.00 0.01 0.00 63 1018.2
20260506143036 57 261 0.0 4.0 0.00 0.01 0.00 65 1018.2
20260506141531 55 127 0.0 6.0 0.00 0.01 0.00 69 1018.3
20260506140027 53 14 0.0 7.0 0.00 0.01 0.00 72 1018.6
20260506134522 51 83 1.0 5.0 0.00 0.01 0.00 77 1018.2
20260506133020 49 142 0.0 2.0 0.00 0.01 0.00 79 1018.4
20260506131519 49 111 0.0 4.0 0.00 0.01 0.00 79 1018.4
20260506130016 47 115 0.0 3.0 0.00 0.04 0.00 82 1018.1
20260506124509 46 167 0.0 1.0 0.00 0.04 0.00 83 1017.7
20260506123008 46 346 0.0 2.0 0.00 0.04 0.00 83 1018.1
20260506121505 46 120 0.0 3.0 0.00 0.04 0.00 83 1017.4
20260506120005 46 98 0.0 4.0 0.00 0.04 0.00 83 1017.1
20260506114503 46 147 0.0 6.0 0.00 0.04 0.00 83 1017.1
20260506113003 46 127 0.0 3.0 0.00 0.04 0.00 84 1017.6
20260506111501 46 116 0.0 4.0 0.00 0.04 0.00 84 1017.4
20260506104558 46 15 0.0 3.0 0.00 0.04 0.00 85 1017.0
20260506103057 46 222 0.0 3.0 0.00 0.04 0.00 86 1017.1
20260506101555 46 313 0.0 3.0 0.00 0.04 0.00 87 1016.6
20260506100055 45 308 0.0 0.0 0.00 0.04 0.00 87 1016.2
20260506094552 45 206 0.0 0.0 0.00 0.04 0.00 87 1016.4
20260506093052 45 162 0.0 0.0 0.00 0.04 0.00 87 1015.9
20260506091547 45 215 0.0 0.0 0.00 0.04 0.00 87 1015.7
20260506090046 45 336 0.0 1.0 0.00 0.05 0.00 87 1015.0
20260506084545 45 244 0.0 3.0 0.00 0.05 0.00 87 1015.1
20260506083046 45 234 0.0 0.0 0.00 0.05 0.00 86 1014.8